Other Public Products
Issued by NWS Grand Forks, ND

Home | Current Version | Previous Version | Graphics & Text | Print | Product List | Glossary On
Versions: 1 2 3 4 5 6 7 8 9 10 11 12 13 14 15 16 17 18 19 20 21 22 23 24 25 26 27 28 29 30 31 32 33 34 35 36 37 38 39 40 41 42 43 44 45 46 47 48 49 50
000
FPUS83 KFGF 041410
OPUFGF
PRAIRIE TO PINES WEATHER ROUNDUP
NATIONAL WEATHER SERVICE EASTERN NORTH DAKOTA/GRAND FORKS ND
900 AM CDT SAT JUL 04 2015

 **SATELLITE DATA USED TO AUGMENT SKY COVER AT AUTOMATED STATIONS**
 *****  WEATHER ACROSS EASTERN NORTH DAKOTA  *****

CITY           SKY/WX    TMP DP  RH WIND       PRES   REMARKS
GRAND FORKS    CLOUDY    69  63  81 SE9       29.86F HAZE
GRAND FORKS AF SUNNY     71  64  81 S7        29.86F HAZE
GRAND CITY NWS   N/A     68 N/A N/A S10         N/A
BUXTON         NOT AVBL
DEVILS LAKE    SUNNY     72  63  73 S10       29.83S
FARGO          SUNNY     72  64  76 SE9       29.88F HAZE
WAHPETON ARPT  SUNNY     68  63  83 SE5       29.91S
$$

 *****  WEATHER ACROSS CENTRAL AND WESTERN NORTH DAKOTA  *****

CITY           SKY/WX    TMP DP  RH WIND       PRES   REMARKS
JAMESTOWN      MOSUNNY   71  65  81 S7        29.87S HAZE
BISMARCK       SUNNY     70  66  87 SE8       29.83F FOG
MINOT          SUNNY     74  62  66 S8        29.77F HAZE
MINOT AFB      SUNNY     74  74  99 S8        29.76F
GARRISON         N/A     70  64  81 S8        29.81S
WILLISTON      SUNNY     73  62  68 S5        29.76S HAZE
DICKINSON      SUNNY     71  62  73 S12       29.80F HAZE
HETTINGER      MOSUNNY   69  61  75 SE9       29.84F HAZE
$$

 *****  OTHER OBSERVATIONS NORTHEAST NORTH DAKOTA  *****

CITY           SKY/WX    TMP DP  RH WIND       PRES   REMARKS
WALHALLA       FAIR      72  72 100 MISG      29.82F FOG
LANGDON        FAIR      72  66  83 S10       29.85F HAZE
CAVALIER       FAIR      68  63  83 MISG      29.83F HAZE
GRAFTON        FAIR      68  66  94 S10       29.85F FOG
CANDO          FAIR      72  66  83 S10       29.83F FOG
FORT TOTTEN    NOT AVBL
ROLLA          FAIR      68  66  94 S9        29.83F FOG
RUGBY          NOT AVBL
 ***** THE ABOVE OBSERVATIONS ARE NON NWS ARE NOT QUALITY
        CONTROLLED AND MAY MIS-REPORT RAIN FOR SNOW...
$$

 *****  OTHER OBSERVATIONS SOUTHEAST NORTH DAKOTA *****

CITY           SKY/WX    TMP DP  RH WIND       PRES   REMARKS
COOPERSTOWN    NOT AVBL
VALLEY CITY    FAIR      68  68 100 S5        29.88S FOG
OAKES            N/A     68  68 100 S8        29.89S FOG
GWINNER          N/A     72  68  88 S9        29.90S
SHEYENNE NWR     N/A     71  67  87 S7        29.95S
BUFFALO        NOT AVBL
WYNDMERE       NOT AVBL
 ***** THE ABOVE OBSERVATIONS ARE NON NWS ARE NOT QUALITY
       CONTROLLED AND MAY MIS-REPORT RAIN FOR SNOW...
$$

  *****  WEATHER ACROSS NORTHERN MINNESOTA  *****

CITY           SKY/WX    TMP DP  RH WIND       PRES   REMARKS
FLAG ISLAND    MOSUNNY   70  61  73 S8        29.90S
WARROAD        SUNNY     68  63  83 S5        29.91S
ROSEAU         MOSUNNY   66  59  77 S6        29.90F
HALLOCK        SUNNY     68  63  83 S9        29.85F HAZE
THF RVR FALLS  SUNNY     68  63  83 S8        29.90F
HALSTAD        NOT AVBL
FOSSTON        SUNNY     66  61  82 S3        29.93S HAZE
BAUDETTE       SUNNY     64  57  78 S7        29.92S
WASKISH        SUNNY     68  61  77 SE3       29.94S HAZE
CROOKSTON      SUNNY     70  63  78 S8        29.89F HAZE
$$
  *****  WEATHER ACROSS CENTRAL AND WEST MINNESOTA  *****

CITY           SKY/WX    TMP DP  RH WIND       PRES   REMARKS
BEMIDJI        SUNNY     67  59  75 S5        29.94F
PARK RAPIDS    PTSUNNY   68  59  73 SE7       29.95S HAZE
WADENA         SUNNY     64  63  94 CALM      29.94S FOG
DETROIT LAKES  SUNNY     70  63  78 S6        29.94S HAZE
MOORHEAD         N/A     70  64  83 SE6       29.90S HAZE
FERGUS FALLS   SUNNY     70  63  78 SE6       29.92S HAZE
ELBOW LAKE     FAIR      69  65  88 SE6       29.92F FOG
MORRIS MN      SUNNY     72  66  83 SE3       29.92S FOG
STAPLES        SUNNY     66  61  82 CALM      29.95S HAZE
WHEATON        SUNNY     68  64  88 S5        29.93S FOG
$$
  *****  WEATHER ELSEWHERE ACROSS MINNESOTA  *****

CITY           SKY/WX    TMP DP  RH WIND       PRES   REMARKS
DULUTH         SUNNY     67  58  72 E7        29.98S
INTRNTL FALLS  MOSUNNY   66  58  75 VRB3      29.95S
ELY            SUNNY     63  55  77 SE5       29.99S
CLOQUET        SUNNY     66  57  72 E3        29.98R
BRAINERD       SUNNY     68  61  78 SE5       29.96S HAZE
HIBBING        SUNNY     65  58  78 SE3       29.98S
ALEXANDRIA     MOSUNNY   70  64  81 CALM      29.95F HAZE
SAINT CLOUD    PTSUNNY   69  62  78 E5        29.94F HAZE
MINNEAPOLIS    PTSUNNY   70  62  76 CALM      29.95S HAZE
$$

  *****  WEATHER ACROSS SOUTH DAKOTA  *****

CITY           SKY/WX    TMP DP  RH WIND       PRES   REMARKS
SIOUX FALLS    SUNNY     69  64  84 S5        29.97S
BROOKINGS      SUNNY     66  63  88 S8        29.97S
WATERTOWN      SUNNY     69  64  84 S7        29.94S HAZE
HURON          MOSUNNY   69  64  84 S7        29.90F HAZE
SISSETON         N/A     72  66  81 S3        29.90F
ABERDEEN       MOSUNNY   68  65  90 S9        29.89F FOG
MITCHELL       MOSUNNY   71  65  81 S8        29.93F
PIERRE         SUNNY     70  64  81 SE7       29.85F
MOBRIDGE       SUNNY     71  67  87 SE15      29.82F
RAPID CITY     SUNNY     70  62  76 S8        29.86F
$$

  *****  SOME WEATHER IN NEARBY STATES *****

CITY           SKY/WX    TMP DP  RH WIND       PRES   REMARKS
GLASGOW MT     SUNNY     73  58  59 SE8       29.72F
GREAT FALLS MT SUNNY     73  45  36 SW12      29.85R
CHEYENNE WY    SUNNY     69  58  67 W5        30.06R
SCOTTSBLUFF NE MOSUNNY   70  61  73 SE9       29.95R
OMAHA NE       SUNNY     67  59  75 SE5       30.01S
DES MOINES IA  MOSUNNY   69  59  70 CALM      30.01R
DAVENPORT IA   SUNNY     68  59  73 CALM      30.02R
CHICAGO IL     SUNNY     71  55  56 NW3       29.99R
EAU CLAIRE WI  SUNNY     69  60  73 CALM      29.95S
LA CROSSE WI   SUNNY     69  60  73 S6        29.97R
$$

  *****  SOME NATIONAL WEATHER *****

CITY           SKY/WX    TMP DP  RH WIND       PRES   REMARKS
LA GUARDIA NY  CLOUDY    71  62  73 NE10      29.94S
RALEIGH NC     PTSUNNY   80  70  71 W8G17     29.97S
ATLANTA GA     RAIN      69  66  90 W5        30.10S FOG
NEW ORLEANS LA PTSUNNY   84  75  74 S10       30.06S HX  92
OKLAHOMA CITY  MOSUNNY   78  70  76 NE5       29.97S
ALBUQUERQUE NM MOSUNNY   72  56  57 N5        30.17R
SALT LAKE CITY PTSUNNY   82  51  34 S9        29.93R
LOS ANGELES CA CLOUDY    63  60  90 CALM      29.89S
BOISE ID       MOSUNNY   76  40  27 CALM      29.86R
SEATTLE WA     MOSUNNY   61  54  77 SW5       29.90S
$$

*** WEATHER ACROSS MANITOBA...SASKATCHEWAN AND ONTARIO ***
                ***ONTARIO***

CITY           SKY/WX    TMP DP  RH WIND       PRES   REMARKS
GERALDTON      PTSUNNY   63  54  72 VRB2      29.99S
THUNDER BAY    MOSUNNY   61  59  94 VRB2      29.99F
SIOUX LOOKOUT  CLOUDY    63  57  82 S6        29.95S
TORONTO        MOSUNNY   70  45  40 VRB2      29.95S
BIG TROUT LK   SUNNY     59  52  77 S7        29.87F
PICKLE LAKE    CLOUDY    64  52  63 S8        29.93F
DRYDEN         SUNNY     66  55  68 S14G20    29.94S
KENORA         MOSUNNY   66  57  72 S10       29.91F
$$
                *** MANITOBA***

CITY           SKY/WX    TMP DP  RH WIND       PRES   REMARKS
BRANDON        NOT AVBL
DAUPHIN        SUNNY     73  64  73 SW12      29.71F HAZE
ISLAND LAKE    LGT RAIN  63  61  94 S7        29.71S
PILOT MOUND      N/A     68  64  88 S10         N/A
THE PAS        CLOUDY    64  63  94 W7        29.65F SMOKE
THOMPSON       CLOUDY    63  61  94 S6        29.59F SMOKE
WINNIPEG       SUNNY     70  63  78 S14       29.82F SMOKE
LYNN LAKE      CLOUDY    63  57  82 W9G20     29.60R FOG
CHURCHILL      LGT RAIN  45  43  93 E25G32    29.71F
$$
                ***SASKATCHEWAN***

CITY           SKY/WX    TMP DP  RH WIND       PRES   REMARKS
ESTEVAN        NOT AVBL
KINDERSLEY     TSTM      57  55  94 S2        29.85S
LLOYDMINSTER   PTSUNNY   64  48  55 NW8       29.85S
PRINCE ALBERT    N/A     64  52  63 NW10      29.72F SMOKE
REGINA         PTSUNNY   72  61  68 NE6       29.74S
YORKTON        CLOUDY    68  63  83 NE2       29.74S HAZE



USA.gov is the U.S. government's official web portal to all federal, state and local government web resources and services.